Regional Weather Roundup
Issued by NWS Green Bay, WI

Home | Current Version | Previous Version | Text Only | Print | Product List | Glossary On
Versions: 1 2 3 4 5 6 7 8 9 10 11 12 13 14 15 16 17 18 19 20 21 22 23 24 25 26 27 28 29 30 31 32 33 34 35 36 37 38 39 40 41 42 43 44 45 46 47 48 49 50
000
ASUS43 KGRB 291211
RWRGRB

NORTH-CENTRAL AND NORTHEAST WISCONSIN REGIONAL WEATHER ROUNDUP
NATIONAL WEATHER SERVICE GREEN BAY WI
700 AM CDT MON AUG 29 2016

WIZ005-009-010>012-018-019-291300-
NORTH CENTRAL WISCONSIN

CITY           SKY/WX    TMP DP  RH WIND       PRES   REMARKS
IRONWOOD       LGT RAIN  64  63  94 W6        30.23R
MANITOWISH WTR CLOUDY    64  64 100 S7        30.23S
ARBOR VITAE    CLOUDY    66  64  94 S7        30.24R
EAGLE RIVER    CLOUDY    64  64 100 S3        30.24R FOG
LAND O LAKES   CLOUDY    63  63 100 CALM      30.25S FOG
RHINELANDER    MOCLDY    64  64 100 CALM      30.26R FOG
PHILLIPS       CLOUDY    64  64  98 S7        30.23S
ANTIGO         CLOUDY    64  64 100 CALM      30.27F FOG
TOMAHAWK       CLOUDY    62  61  97 CALM      30.25S FOG
MERRILL        CLOUDY    64  64 100 CALM      30.25S FOG
$$

WIZ013-073-291300-
NORTHEAST WISCONSIN

CITY           SKY/WX    TMP DP  RH WIND       PRES   REMARKS
IRON MOUNTAIN  CLOUDY    61  59  93 SE5       30.25R FOG
MARINETTE      MOCLDY   N/A N/A N/A CALM      30.27S
OCONTO         CLOUDY    63  62  97 CALM      30.26R
$$

WIZ017-030-035>037-045-291300-
CENTRAL WISCONSIN

CITY           SKY/WX    TMP DP  RH WIND       PRES   REMARKS
MEDFORD        CLOUDY    65  65 100 S5        30.25R FOG
WAUSAU         CLOUDY    66  65  96 SE3       30.23S FOG
MOSINEE        FOG       64  64 100 SE5       30.26R VSB 3/4
MARSHFIELD     FOG       67  65  93 S7        30.24R VSB<1/4
WISC RAPIDS    CLOUDY    68  68 100 S7        30.25R FOG
STEVENS POINT  CLOUDY    65  65 100 SW5       30.25S FOG
WAUPACA        PTCLDY    66  65  98 CALM      30.25R FOG
SHAWANO        CLOUDY    66  64  91 CALM      30.26R
CLINTONVILLE   CLOUDY    64  63  94 CALM      30.25R
WAUTOMA        NOT AVBL
$$

WIZ038-039-048-051-291300-
FOX VALLEY

CITY           SKY/WX    TMP DP  RH WIND       PRES   REMARKS
NWS GREEN BAY  CLOUDY    64  64 100 CALM      30.25R
APPLETON       MOCLDY    66  64  94 CALM      30.24S
OSHKOSH        CLEAR     64  62  93 E3        30.24S
FOND DU LAC    CLEAR     62  61  96 S3        30.25S
$$

WIZ022-050-052-291300-
EAST CENTRAL WISCONSIN

CITY           SKY/WX    TMP DP  RH WIND       PRES   REMARKS
EPHRAIM        PTSUNNY   63  63 100 CALM      30.27R FOG
WASHINGTON ISL NOT AVBL
STURGEON BAY   CLOUDY    62  62 100 CALM      30.28R FOG
MANITOWOC      FOG       59  58  96 MISG      30.26S VSB 1/4
SHEBOYGAN      FOG       60  59  96 CALM      30.26S VSB<1/4
$$

LMZ563-521-522-541>543-291300-
LAKESHORE

STATION/POSITION TIME  TEMP    WIND        PRES    VSBY  WAVE
                       AIR SEA DIR/SP/G                  HT/PER
                 (UTC) (F)     (DEG/KT/KT) (MB)    (MI)  (FT/S)
SHEBOYGAN LKSHOR 1200   62     340/  1/  1 1024.0F
KEWAUNEE LKSHORE 1100   61     300/  2/  3 1023.8S
NORTHPORT PIER   1100   66     150/  4/  7 1024.4S
N MID LAKE BUOY  1150   69 71  150/ 12/ 14 1023.9F         1
CHAMBERS ISLAND  1140   62        CALM     1024.7R
MENOMINEE LKSHOR 1100   65      CALM  /  1 1023.7R
$$




USA.gov is the U.S. government's official web portal to all federal, state and local government web resources and services.